Location: Unspecified
(0.0000°N, 0.0000°E)
Time: 00:48:49
(UTC+00:00)

QIANFAN-31 - Pass Details

Date: 14 March 2026
Orbit: 1037 x 1049 km, 89.0° (Epoch: 14 April)

Event Time Altitude Azimuth Distance (km) Brightness Sun altitude
Rises 05:26:39 0° 355° (N) 3,778 ? -10.6°
Reaches altitude 10° 05:29:12 10° 351° (N) 2,829 ? -10.0°
Maximum altitude 05:35:32 59° 273° (W) 1,185 ? -8.4°
Drops below altitude 10° 05:41:55 10° 195° (SSW) 2,846 ? -6.8°
Sets 05:44:31 0° 191° (S) 3,802 ? -6.2°
